Flag for Sudan Weather past 2 weeks in Port Sudan, Sudan

Now
84 °F

Sunny.


Feels Like: 85 °F
Forecast: 74 / 90 °F
Wind: 2 mph from East

Location: Jeddah King Abdul Aziz International Airport

Current Time: Mar 29, 2015 at 8:21:40 AM

Latest Report: Mar 29, 2015 at 8:00 AM


Visibility: 10 mi

Pressure: 29.74 "Hg

Humidity: 48%

Dew point: 63 °F

Location of Port SudanLocation

Historic Weather in Port Sudan — Graph

°F

Port Sudan temperature yesterday

Maximum temperature yesterday: 102 °F (at 2:03 PM)
Minimum temperature yesterday: 77 °F (at 6:00 AM)
Average temperature yesterday: 91 °F

Past Weeks' High & Low Weather Summary

 TemperatureHumidityPressure
High102 °F (Mar 28, 2:03 PM)83% (Mar 15, 5:00 AM)29.95 "Hg (Mar 15, 5:00 AM)
Low70 °F (Mar 21, 7:00 AM)15% (Mar 28, 11:00 AM)29.68 "Hg (Mar 28, 2:03 PM)
Average81 °F52%29.83 "Hg
* Reported Mar 14 7:00 AM — Mar 29 7:00 AM, Port Sudan, Weather by CustomWeather, © 2015

Note: Actual official high and low records may vary slightly from our data, if they occured in-between our weather recording intervals... More about our weather records

Advertising

Port Sudan weather history for previous 24 hours

 ConditionsComfort  
Time TempWeatherWind HumidityBarometerVisibility
7:00 AM
Sun, Mar 29
79 °FSunny.5 mph54%29.74 "Hg10 mi
6:00 AM82 °FClear.No wind48%29.71 "Hg10 mi
5:00 AM81 °FClear.7 mph42%29.68 "Hg10 mi
4:00 AM81 °FClear.5 mph39%29.68 "Hg10 mi
3:00 AM84 °FClear.5 mph33%29.68 "Hg10 mi
2:00 AM86 °FClear.5 mph31%29.71 "Hg10 mi
1:00 AM86 °FClear.5 mph31%29.71 "Hg10 mi
12:00 AM90 °FClear.5 mph27%29.74 "Hg10 mi
11:00 PM
Sat, Mar 28
90 °FClear.16 mph33%29.74 "Hg10 mi
10:00 PM91 °FClear.7 mph30%29.74 "Hg10 mi
9:00 PM91 °FClear.12 mph36%29.71 "Hg5 mi
8:00 PM91 °FClear.16 mph34%29.68 "Hg4 mi
7:00 PM93 °FClear.18 mph30%29.68 "Hg3 mi
6:00 PM95 °FSunny.18 mph26%29.68 "Hg2 mi
5:00 PM99 °FSandstorm.28 mph21%29.68 "Hg1 mi
4:00 PM100 °FSandstorm.28 mph18%29.68 "Hg1 mi
3:00 PM100 °FSandstorm.25 mph17%29.68 "Hg1 mi
2:04 PM102 °FSandstorm.23 mph15%29.68 "Hg1 mi
2:03 PM102 °FSandstorm.23 mph15%29.68 "Hg1 mi
1:00 PM100 °FSunny.16 mph17%29.71 "Hg4 mi
12:00 PM100 °FSunny.16 mph17%29.74 "Hg4 mi
11:00 AM99 °FSunny.16 mph15%29.77 "Hg10 mi
10:00 AM97 °FSunny.14 mph17%29.77 "Hg10 mi
9:00 AM91 °FSunny.9 mph24%29.80 "Hg10 mi
8:00 AM86 °FSunny.5 mph31%29.77 "Hg5 mi
Weather by CustomWeather, © 2015

See weather overviewHow to use our weather pages